Tracking 28336 objects as of 4-Dec-2023
HD Live streaming from Space Station
objects crossing your sky now

IRIDIUM 42

Track IRIDIUM 42 now!
10-day predictions
IRIDIUM 42 is classified as:


NORAD ID: 25077
Int'l Code: 1997-077A
Perigee: 779.5 km
Apogee: 783.0 km
Inclination: 86.4 °
Period: 100.3 minutes
Semi major axis: 7152 km
RCS: 3.3675 m2 (large)
Launch date: December 8, 1997
Source: United States (US)
Launch site: Taiyaun Space Center, China (TSC)
Your satellite tracking list
Your tracking list is empty




NASA's NSSDC Master Catalog

Two Line Element Set (TLE):
1 25077U 97077A   23337.46369242  .00000978  00000-0  33485-3 0  9995
2 25077  86.3949 114.8129 0002467 106.8551 253.2916 14.35296686360594
Source of the keplerian elements: AFSPC